Location: L�Adrech
(44.2500°N, 6.4167°E)
Time: 12:48:26
(UTC+00:00)

BREEZE-M DEB (TANK) - Pass Details

Date: 07 June 2020
Orbit: 304 x 15757 km, 49.4° (Epoch: 11 July)

Event Time Altitude Azimuth Distance (km) Brightness Sun altitude
Rises 02:14:36 0° 289° (WNW) 2,374 5.4 -13.5°
Enters shadow 02:15:07 - 287° (WNW) 2,113 5.1 -13.4°
Exits shadow 02:21:10 - 158° (SSE) 1,586 4.4 -12.7°
Sets 02:23:11 0° 146° (SE) 2,581 5.6 -12.5°
